シューメーカー-レヴィ第3彗星

129P/Shoemaker-Levy 3 (2022)

English version
Home page
Updated on May 13, 2024

---------------------------------------------------------------------

・ プロフィール

・ 写真集

・ 軌道要素

Epoch 2024 Mar. 31.0 TT = JDT 2460400.5
T 2022 Nov. 30.97482 TT                                 Rudenko
q   3.9243910            (2000.0)            P               Q
n   0.11085654     Peri.  307.55655     -0.67440463     -0.73834444
a   4.2916915      Node   184.86079     +0.69495843     -0.63241803
e   0.0855841      Incl.    3.44224     +0.24942166     -0.23429667
P   8.89
>From 413 observations 2010 Sept. 4-2024 Mar. 19, mean residual 0".6.
     Nongravitational parameters A1 = +0.03, A2 = -0.0170.

・ 光度変化

        m1 = -1768.5 + 5 logΔ + 3000   log r(t + 1640)  [-1630,-1505]  (2018年 6月14日〜2018年10月17日)
        m1 =     7.7 + 5 logΔ +   15.0 log r            [-1505,     ]  (2018年10月17日〜              )

---------------------------------------------------------------------

軌道要素はM.P.E.C. 2024-F34に掲載されたものです。
光度グラフはComet for Windowsで作成したものです。

---------------------------------------------------------------------

Copyright(C) Seiichi Yoshida (comet@aerith.net). All rights reserved.